Flag for Estonia

Past Weather in Tallinn, Estonia — Yesterday and Last 2 Weeks

Now
54 °F

Clear.


Feels Like: 52 °F
Forecast: 65 / 58 °F
Wind: 6 mph from South

Location: Tallinn
Current Time: Sep 24, 2020 at 6:05:04 am
Latest Report: Sep 24, 2020 at 5:20 am
Visibility: 5 mi
Pressure29.71 "Hg
Humidity: 100%
Dew Point: 54 °F
Location of TallinnLocation

Past Weather in Tallinn — Graph

°F

Tallinn Temperature Yesterday

Maximum temperature yesterday: 70 °F (at 2:50 pm)
Minimum temperature yesterday: 48 °F (at 3:20 am)
Average temperature yesterday: 57 °F

High & Low Weather Summary for the Past Weeks

 TemperatureHumidityPressure
High72 °F (Sep 16, 2:50 pm)100% (Sep 9, 6:50 am)30.18 "Hg (Sep 9, 6:50 am)
Low41 °F (Sep 20, 6:20 am)51% (Sep 11, 2:50 pm)29.33 "Hg (Sep 10, 3:50 am)
Average55 °F81%29.86 "Hg
* Reported Sep 9 4:20 am — Sep 24 4:50 am, Tallinn. Weather by CustomWeather, © 2020

Note: Actual official high and low records may vary slightly from our data, if they occured in-between our weather recording intervals... More about our weather records

Tallinn Weather History for the Previous 24 Hours

Scroll right to see more
 ConditionsComfort  
Time TempWeatherWind HumidityBarometerVisibility
4:50 am
Thu, Sep 24
55 °FClear.6 mph94%29.71 "Hg5 mi
3:50 am55 °FClear.6 mph94%29.71 "Hg6 mi
3:20 am55 °FClear.7 mph94%29.71 "Hg6 mi
2:50 am55 °FClear.6 mph94%29.71 "Hg6 mi
2:20 am55 °FClear.5 mph94%29.71 "Hg5 mi
1:50 am55 °FClear.5 mph94%29.71 "Hg6 mi
1:20 am55 °FClear.6 mph94%29.71 "Hg10 mi
12:50 am57 °FClear.7 mph88%29.71 "Hg10 mi
12:20 am57 °FClear.7 mph94%29.71 "Hg10 mi
11:50 pm
Wed, Sep 23
57 °FClear.6 mph88%29.71 "Hg10 mi
11:20 pm57 °FClear.7 mph94%29.71 "Hg10 mi
10:50 pm57 °FClear.7 mph94%29.71 "Hg10 mi
10:20 pm57 °FClear.7 mph94%29.71 "Hg10 mi
9:50 pm59 °FClear.6 mph88%29.68 "Hg10 mi
9:20 pm59 °FClear.5 mph88%29.68 "Hg10 mi
8:50 pm59 °FClear.5 mph88%29.68 "Hg10 mi
8:20 pm61 °FClear.5 mph83%29.68 "Hg10 mi
7:50 pm63 °FClear.3 mph77%29.68 "Hg10 mi
7:20 pm64 °FClear.6 mph73%29.68 "Hg10 mi
6:50 pm64 °FSunny.8 mph73%29.68 "Hg10 mi
6:20 pm66 °FSunny.8 mph68%29.68 "Hg10 mi
5:50 pm68 °FPassing clouds.9 mph64%29.68 "HgN/A
5:20 pm66 °FSunny.6 mph73%29.68 "Hg10 mi
4:50 pm68 °FSunny.8 mph64%29.68 "Hg10 mi
4:20 pm68 °FSunny.13 mph64%29.68 "Hg10 mi
3:50 pm70 °FSunny.12 mph64%29.68 "Hg10 mi
2:50 pm70 °FSunny.10 mph64%29.71 "Hg10 mi
2:20 pm68 °FPassing clouds.10 mph69%29.71 "HgN/A
1:50 pm68 °FSunny.8 mph69%29.71 "Hg10 mi
1:20 pm66 °FSunny.8 mph73%29.71 "Hg10 mi
12:50 pm66 °FSunny.9 mph73%29.71 "Hg10 mi
12:20 pm63 °FSunny.9 mph77%29.71 "Hg10 mi
11:50 am61 °FPassing clouds.9 mph83%29.74 "HgN/A
11:20 am61 °FSunny.10 mph83%29.74 "Hg10 mi
10:50 am57 °FSunny.10 mph88%29.74 "Hg10 mi
10:20 am55 °FSunny.10 mph94%29.74 "Hg10 mi
9:50 am54 °FClear.10 mph94%29.74 "Hg6 mi
9:20 am52 °FClear.9 mph94%29.74 "Hg6 mi
8:50 am52 °FClear.8 mph94%29.74 "Hg6 mi
8:20 am50 °FClear.7 mph94%29.74 "Hg4 mi
7:50 am48 °FClear.7 mph100%29.74 "Hg6 mi
7:20 am48 °FSunny.8 mph100%29.74 "Hg10 mi
6:50 am48 °FClear.8 mph100%29.74 "Hg10 mi
6:20 am48 °FClear.8 mph100%29.74 "Hg10 mi
Weather by CustomWeather, © 2020

See weather overview